COSMOS 339

Satellite information

Favourite Embed

Satellite Type and Status

PAYLOADIN ORBIT

Key statistics

Satellite COSMOS 339 at a glance.

Uptime

20173

Days in orbit

Revolutions

≈ 12.5

Per day

Orbit

LEO

Low Earth Orbit

Inclination

74.0

Latest

Satellite identification and parameters

Extended collection of information and parameters for COSMOS 339.

Object identification

Identified? True

Debris? False

Object name: COSMOS 339

International designator: 1970-036D

Object number (NORAD): 4386

Object ID (CCSDS): 4386

Country: COMMONWEALTH OF INDEPENDENT STATES (CIS)

Current information (Y/N): Y

RCS size: MEDIUM

Orbital parameters

Period: 115.028 minutes

Inclination: 74.0258 deg

SMA: 7834.824 km

Apoapsis: 1469.23 km

Periapsis: 1444.149 km

RAAN: 226.6343 deg

Eccentricy: 0.0016006

Argument of periapsis: 296.8152 deg

Mean anomaly: 178.2215 deg

Mean motion: 12.51868938 rev/day

Mean motion (dot): -0.00000015 rev/day2

B* drag term: 0.0000072043 1/REarth

Two-line elements (TLE)

Creation date: July 17, 2025, 8:06 p.m.

Reference frame: TEME

Reference center: EARTH

Epoch: July 17, 2025, 12:57 p.m. UTC

TLE line 0: 0 COSMOS 339

TLE line 1: 1 4386U 70036D 25198.54017846 -.00000015 00000-0 72043-5 0 9995

TLE line 2: 2 4386 74.0258 226.6343 0016006 296.8152 178.2215 12.51868938524032

Live tracking on map

Real-time ground track for satellite COSMOS 339.

In-orbit conjunctions

There are no conjunctions computed for COSMOS 339, at the moment. Check back to stay up to date, as we update our databases every day.

Go to all conjunctions

Associated space launch

Military communications satellites

COSMOS 339 was lifted into orbit during the mission ‘Kosmos-3M | Strela-1M 1-8’, on board a Kosmos-3M space rocket.

The launch took place on April 25, 1970, 5:09 p.m. from 132/2.

For more information about the launch, click the button.

Launch to space Kosmos-3M | Strela-1M 1-8
Kosmos-3M | Strela-1M 1-8

Agency: N/A

Status: Launch Successful

Launch date: April 25, 1970, 5:09 p.m. UTC

Rocket: Kosmos-3M

Launch pad: 132/2

Location: Plesetsk Cosmodrome, Russian Federation

...

Latest news about this satellite

There are no fresh news available about this satellite. Check back as we update our databases every day.


Newsletter sign-up

Weekly statistics, charts and insights to help you stay on top of the space industry.